Вернуться в каталог

THORAD DELTA 1 DEB

АктивенSSO
NORAD 9987·DEBRIS·🇺🇸 United States

Запущен Nov 15, 1974 с Vandenberg Space Force Base

Loading…

Ближайшие Пролёты (ближайшие 24 часа)

TLE

СвежийSource: Space-Track

Эпоха: Sep 11, 2026, 07:33 UTC

1 09987U 74089EE  26254.31488374  .00000544  00000-0  36822-2 0  9994
2 09987 101.4752  26.1125 0097705 294.8790  92.8906 12.52320010360132

Отслеживайте THORAD DELTA 1 DEB в реальном времени с AllMySat

Download on the App Store